Location: Bronschhofen
(47.4788°N, 9.0353°E)
Time: 19:45:31
(UTC+00:00)

Resurs 1-4 Rocket - Pass Details

Date: 20 May 2022
Orbit: 800 x 813 km, 98.7° (Epoch: 01 July)

Event Time Altitude Azimuth Distance (km) Brightness Sun altitude
Rises 02:09:31 0° 6° (N) 3,321 6.3 -12.6°
Reaches altitude 10° 02:12:04 10° 357° (N) 2,387 5.2 -12.3°
Maximum altitude 02:16:38 31° 297° (WNW) 1,387 3.2 -11.8°
Enters shadow 02:20:25 14° 241° (WSW) 2,125 3.7 -11.4°
